This is the latest recevied weather packets stored in our database for station/object WS4FSC-7. If no packets are shown the sender has not sent any weather packets the latest 10 day(s).
| Time | Temp. | Humidity | Pressure | Rain* | Wind** | Luminosity | Snow |
|---|---|---|---|---|---|---|---|
| 1788543891 | 33.33° C | 69% | 1015 hPa | - | - | 826 W/m² | - |
| 1788543351 | 33.33° C | 70% | 1015 hPa | - | - | 880 W/m² | - |
| 1788542990 | 33.33° C | 69% | 1015 hPa | - | - | 961 W/m² | - |
| 1788542812 | 33.33° C | 70% | 1015 hPa | - | - | 982 W/m² | - |
| 1788542450 | 33.33° C | 69% | 1015 hPa | - | - | 925 W/m² | - |
| 1788542090 | 33.33° C | 70% | 1014 hPa | - | - | 864 W/m² | - |
| 1788541730 | 33.33° C | 66% | 1015 hPa | - | - | 799 W/m² | - |
| 1788541552 | 33.33° C | 65% | 1015 hPa | - | - | 821 W/m² | - |
| 1788541011 | 32.78° C | 69% | 1015 hPa | - | - | 837 W/m² | - |
| 1788540651 | 33.33° C | 67% | 1015 hPa | - | - | 939 W/m² | - |
| 1788540472 | 32.78° C | 69% | 1015 hPa | - | - | 951 W/m² | - |
| 1788539210 | 32.22° C | 75% | 1015 hPa | - | - | 562 W/m² | - |
| 1788538491 | 30.56° C | 79% | 1016 hPa | - | - | 612 W/m² | - |
| 1788538132 | 30° C | 81% | 1016 hPa | - | - | 249 W/m² | - |
| 1788537952 | 30° C | 83% | 1016 hPa | - | - | 427 W/m² | - |
| 1788537411 | 29.44° C | 84% | 1016 hPa | - | - | 184 W/m² | - |
| 1788537232 | 29.44° C | 84% | 1016 hPa | - | - | 178 W/m² | - |
| 1788537051 | 28.89° C | 85% | 1016 hPa | - | - | 181 W/m² | - |
| 1788536150 | 28.89° C | 81% | 1016 hPa | - | - | 223 W/m² | - |
| 1788535972 | 28.89° C | 81% | 1016 hPa | - | - | 250 W/m² | - |
| 1788535791 | 29.44° C | 80% | 1016 hPa | - | - | 277 W/m² | - |
| 1788535611 | 29.44° C | 80% | 1016 hPa | - | - | 251 W/m² | - |
| 1788535430 | 30° C | 80% | 1016 hPa | - | - | 153 W/m² | - |
| 1788535250 | 30° C | 81% | 1016 hPa | - | - | 166 W/m² | - |
| 1788534711 | 30° C | 81% | 1016 hPa | - | - | 177 W/m² | - |
* Rain since midnight (hover to see other rain measurements)
** Current wind speed in m/s (hover to see current wind gust speed)